Regional Weather Roundup
Issued by NWS

Home | Current Version | Previous Version | Graphics & Text | Print | Product List | Glossary On
Versions: 1 2 3 4 5 6 7 8 9 10 11 12 13 14 15 16 17 18 19 20 21 22 23 24 25 26 27 28 29 30 31 32 33 34 35 36 37 38 39 40 41 42 43 44 45 46 47 48 49 50
000
ASUS43 KIND 301859
RWRIN

WEATHER ROUNDUP FOR INDIANA
NATIONAL WEATHER SERVICE INDIANAPOLIS IN
300 PM EDT MON MAY 30 2016

NOTE: "FAIR" INDICATES FEW OR NO CLOUDS BELOW 12,000 FEET WITH NO
SIGNIFICANT WEATHER AND/OR OBSTRUCTIONS TO VISIBILITY.

* - STATION DOES NOT REPORT WEATHER SUCH AS PRECIPITATION OR FOG.

+ - STATION NOT QUALITY CONTROLLED BY THE NATIONAL WEATHER SERVICE.
    USE DATA WITH CAUTION...ESPECIALLY DEWPOINT AND RELATIVE
    HUMIDITY OBSERVATIONS.

INZ001>003-010>013-019-020-302000-
NORTHWEST INDIANA

CITY           SKY/WX    TMP DP  RH WIND       PRES   REMARKS
GARY /AIRPORT/   N/A     81  66  61 E8        30.01F
KNOX *+          N/A     86  37  17 NW13G18   29.99F

$$

LMZ046-743>745-302000-
SOUTHERN LAKE MICHIGAN

STATION/POSITION TIME  TEMP    WIND        PRES    WAVE
                       AIR SEA DIR/SP/G            HT
                 (UTC) (F)     (DEG/KT/KT) (MB)    (FT)
BURNS HARBOR     1800   68      70/ 10/ 10 1016.6F
MICHIGAN CITY    1800   65      30/  9/ 10   N/A
5NW MICH CITY    1800   65 63   40/  6/  8   N/A     1

$$

INZ004-005-014>016-021>024-302000-
NORTH CENTRAL INDIANA

CITY           SKY/WX    TMP DP  RH WIND       PRES   REMARKS
ELKHART        MOSUNNY   82  63  51 W12G17    30.02F
GOSHEN         MOSUNNY   82  56  40 NW16G23   30.00F
SOUTH BEND     SUNNY     82  57  42 N14       30.01F

$$

INZ006>009-017-018-025>027-302000-
NORTHEAST INDIANA

CITY           SKY/WX    TMP DP  RH WIND       PRES   REMARKS
ANGOLA *+        N/A     84  81  89 NW14      30.00F HX  98
FORT WAYNE     CLOUDY    85  53  33 NW10G20   30.01F

$$

INZ028-029-035-036-043>045-051>053-302000-
WEST CENTRAL INDIANA

CITY           SKY/WX    TMP DP  RH WIND       PRES   REMARKS
CRAWFORDSVL +  MOSUNNY   84  52  32 SW9       30.04F
GREENCASTLE +  PTSUNNY   81  61  50 SE5       30.04F
LAFAYETTE      SUNNY     85  53  33 VRB5      30.01F
TERRE HAUTE    MOSUNNY   86  55  34 VRB3      30.04F

$$

INZ030>032-037>040-046>048-054>057-064-065-302000-
CENTRAL INDIANA

CITY           SKY/WX    TMP DP  RH WIND       PRES   REMARKS
COLUMBUS       SUNNY     82  55  39 N6        30.04F
FRANKFORT +      N/A     89  20   8 W8G17     30.05F
INDIANAPOLIS   PTSUNNY   82  54  37 VRB5      30.03F
-EAGLE CREEK   SUNNY     85  54  34 CALM      30.03F
KOKOMO *+      MOSUNNY   88  55  33 W13G23    30.01F
SHELBYVILLE    MOSUNNY   87  54  32 NW6       30.03F

$$

INZ033-034-041-042-049-050-058-059-302000-
EAST CENTRAL INDIANA

CITY           SKY/WX    TMP DP  RH WIND       PRES   REMARKS
MUNCIE         PTSUNNY   86  51  29 N6        30.03F

$$

INZ060-061-067>069-081>083-085>088-302000-
SOUTHWEST INDIANA

CITY           SKY/WX    TMP DP  RH WIND       PRES   REMARKS
EVANSVILLE     SUNNY     87  58  37 NE3       30.04F
HUNTINGBURG *+ SUNNY     84  61  45 N7        30.04F

$$

INZ062-063-066-070>080-084-089>092-302000-
SOUTH CENTRAL AND SOUTHEAST INDIANA

CITY           SKY/WX    TMP DP  RH WIND       PRES   REMARKS
BLOOMINGTON    MOSUNNY   83  56  39 CALM      30.05F
MADISON *+     MOSUNNY   86  50  28 NW5       30.06F
SEYMOUR +      SUNNY     86  57  37 N3        30.03F

$$




USA.gov is the U.S. government's official web portal to all federal, state and local government web resources and services.